カタログに戻る

STARLINK-34903

運用中通信VLEO
NORAD 65372·PAYLOAD·🇺🇸 United States

打ち上げ Aug 28, 2025 から Cape Canaveral Space Force Station

Loading…

次のパス (今後24時間)

TLE

最新Source: CelesTrak SupGP

元期: Sep 15, 2026, 03:24 UTC

1 65372C 25190X   26258.14215278  .00067720  00000+0  20000-2 0  2586
2 65372  53.1592   6.4158 0001022  98.0820 354.4013 15.34369695    18

AllMySatでSTARLINK-34903をリアルタイム追跡

Download on the App Store